Location: Trondheim
(63.4170°N, 10.4170°E)
Time: 14:24:07
(UTC+02:00)

Iridium 82 - Visible Passes

Search period start: 19 April 2014 00:00
Search period end: 29 April 2014 00:00
Orbit: 776 x 779 km, 86.4° (Epoch: 18 April)

Date Brightness Start Highest point End Pass type
(mag) Time Alt. Az. Time Alt. Az. Time Alt. Az.
19 Apr 7.2 22:42:40 10° SW 22:47:28 36° WNW 22:52:18 10° N visible
20 Apr 8.5 00:27:36 10° WNW 00:29:52 13° NW 00:32:08 10° NNW visible
20 Apr 6.5 22:08:37 10° SSW 22:13:42 51° WNW 22:18:48 10° N visible
20 Apr 8.3 23:52:25 10° W 23:55:44 17° NW 23:59:03 10° N visible
21 Apr 8.1 23:17:40 10° WSW 23:21:42 22° NW 23:25:45 10° N visible
22 Apr 7.6 22:43:12 10° SW 22:47:46 30° WNW 22:52:21 10° N visible
23 Apr 8.8 00:29:08 10° NW 00:30:23 11° NW 00:31:38 10° NNW visible
23 Apr 7.0 22:09:00 10° SW 22:13:56 41° WNW 22:18:54 10° N visible
23 Apr 8.5 23:53:27 10° WNW 23:56:11 14° NW 23:58:56 10° NNW visible
24 Apr 8.3 23:18:28 10° W 23:22:06 19° NW 23:25:44 10° N visible
25 Apr 8.0 22:43:50 10° WSW 22:48:06 25° WNW 22:52:23 10° N visible
26 Apr 8.7 23:54:42 10° WNW 23:56:41 12° NW 23:58:39 10° NNW visible
27 Apr 8.5 23:19:24 10° W 23:22:31 16° NW 23:25:39 10° N visible
28 Apr 8.3 22:44:33 10° WSW 22:48:28 21° NW 22:52:23 10° N visible
